Theta_e
303 303 303 303 303 304 304 304 304 305 304 305 305 306 307 309 311 313 316 318 318 317 318 318 318 319 319 319 319 318 316 315 311 314 316 318 317 317 313 314 314 316 316
300 301 300 300 301 301 301 301 302 302 303 303 303 304 304 305 306 307 308 309 310 313 317 316 317 317 317 317 317 316 316 316 313 310 314 314 314 316 317 314 311 310 312
297 298 297 296 297 297 297 298 299 300 300 301 301 301 301 302 303 304 304 303 303 305 307 308 307 309 315 316 316 315 315 315 315 312 312 314 315 315 311 311 311 310 308
294 294 294 293 293 294 295 295 296 297 297 298 298 298 299 299 300 298 297 297 297 299 301 302 302 303 305 304 304 310 314 313 313 312 312 312 312 309 302 303 303 298 304
291 291 290 290 290 291 292 292 293 294 294 295 295 296 297 297 297 294 294 294 295 296 298 299 300 296 291 295 300 304 305 307 310 310 309 310 309 292 292 301 299 304 300
288 287 287 287 287 287 287 289 290 291 292 292 292 293 293 293 293 293 292 292 294 294 295 296 297 294 296 295 296 296 298 300 300 302 303 306 307 304 296 299 301 289 292
284 284 283 283 283 284 284 286 288 288 289 289 290 290 290 291 292 291 290 291 292 293 294 294 294 295 293 296 295 294 295 296 298 300 299 301 302 306 299 295 293 293 296
281 280 280 280 280 281 282 283 284 286 286 287 288 288 288 290 291 291 290 290 292 293 293 293 293 293 293 292 293 292 292 293 295 298 300 302 305 307 306 302 298 293 287
277 277 277 277 277 278 279 280 281 282 283 285 285 286 287 288 290 290 290 289 289 289 291 292 292 290 291 292 291 289 289 291 294 295 296 297 297 298 299 294 289 287 287
273 274 275 275 275 276 277 278 279 280 280 281 283 284 285 286 288 289 289 287 286 286 288 288 287 288 290 290 288 288 287 288 289 290 291 293 294 295 294 294 295 290 287
272 272 272 273 274 275 276 276 276 277 278 279 281 283 284 285 286 287 287 285 283 284 285 285 286 288 288 288 289 287 287 290 289 289 290 291 291 291 291 292 294 292 290
270 270 270 271 272 274 273 274 275 276 276 278 280 280 282 283 284 285 285 284 284 283 282 284 284 286 286 287 287 288 290 290 288 288 288 289 289 289 288 284 285 287 287
268 268 269 270 271 271 272 272 272 274 274 276 276 276 277 280 281 282 282 282 283 281 281 282 283 284 284 285 286 289 287 287 287 287 287 288 289 284 282 281 281 281 280
266 266 268 268 269 270 270 271 272 272 272 272 272 272 273 276 277 278 279 279 279 279 279 279 280 281 283 285 285 288 287 288 287 287 287 288 283 282 282 281 281 281 279
264 265 266 266 267 267 268 269 270 271 272 270 271 271 270 271 274 276 277 277 276 277 277 276 276 277 279 281 284 286 286 287 286 287 287 287 286 283 282 281 281 281 280
262 263 264 264 264 266 266 267 270 271 272 273 273 273 272 275 276 276 277 277 278 278 274 273 273 275 277 280 282 284 285 284 286 287 286 286 285 284 283 280 281 281 280
261 262 262 263 264 264 265 264 264 267 270 271 271 272 273 273 273 274 275 275 276 275 270 271 272 275 276 277 279 281 282 284 284 286 286 286 286 285 283 282 280 280 280
260 261 262 263 263 263 263 263 263 262 262 263 267 269 270 271 272 272 273 273 268 269 269 270 271 272 273 273 275 276 278 281 283 285 285 285 286 285 284 282 280 279 280
260 261 262 262 262 262 262 262 263 262 262 262 263 265 266 268 269 270 270 266 265 266 267 268 269 269 270 270 271 272 274 275 279 282 283 285 285 285 284 283 281 280 279
260 260 260 260 261 260 261 261 261 260 260 260 260 261 262 262 262 263 264 265 264 264 265 265 266 267 267 268 269 270 271 272 275 278 282 283 285 285 283 283 281 279 277
258 259 259 259 260 260 260 259 260 260 259 259 260 261 266 264 263 262 262 262 262 262 263 263 264 265 266 266 267 267 268 269 272 274 276 283 285 285 284 283 282 280 277
258 259 259 258 259 259 259 259 259 259 259 259 260 261 265 262 261 260 260 261 261 262 262 262 262 263 264 264 265 265 266 266 268 270 271 275 282 285 285 282 281 278 275
258 257 257 258 258 258 258 259 259 259 259 259 259 259 259 260 260 260 260 260 261 261 261 262 261 262 263 263 264 265 265 265 267 269 269 269 273 277 284 282 279 275 273
256 256 256 257 257 258 258 258 259 258 258 258 258 259 259 259 259 259 260 260 260 260 260 260 261 260 261 262 263 264 265 266 267 267 269 270 272 273 279 281 278 275 271
255 255 256 256 257 257 257 257 258 258 258 258 258 259 259 259 259 259 260 260 260 259 259 259 260 260 260 260 261 262 263 265 265 267 268 269 270 270 272 280 277 275 271
256 256 256 256 257 257 257 257 257 258 258 258 259 259 259 259 259 259 259 259 259 259 259 259 259 259 259 260 261 262 263 265 265 266 267 268 268 271 274 279 276 273 270
Wind_Speed
3 3 4 4 4 4 3 4 4 4 5 5 6 7 8 8 8 8 9 9 10 10 10 11 13 12 10 10 9 10 11 11 14 14 12 11 13 11 7 9 11 12 12
3 3 3 3 3 4 4 4 5 5 5 5 6 6 7 8 8 9 9 9 10 11 11 13 13 9 13 11 10 13 12 12 11 20 14 11 13 13 12 12 10 10 12
3 2 3 5 5 4 4 5 5 5 5 5 5 6 7 7 8 8 10 11 11 11 11 10 10 12 12 11 12 11 11 10 11 13 16 12 12 9 9 10 11 11 10
1 2 3 4 4 4 4 5 5 5 4 5 5 6 5 7 7 9 10 11 12 11 10 10 11 12 13 11 12 13 12 11 12 12 13 13 10 6 3 5 8 6 12
2 3 4 5 5 6 5 5 6 5 4 5 5 6 6 5 4 8 10 11 12 12 11 11 10 10 14 13 9 11 13 12 12 11 12 12 11 3 5 5 8 10 7
5 5 6 6 7 7 8 7 7 7 5 6 5 5 6 4 7 8 9 10 11 10 10 11 12 12 12 13 15 16 13 13 14 10 12 14 15 8 5 8 10 3 6
6 7 8 9 8 8 9 9 7 7 7 6 6 5 6 6 3 7 11 9 10 8 8 9 9 8 10 12 16 18 17 16 14 12 15 15 15 13 4 4 5 5 8
8 9 10 10 9 8 9 9 9 8 8 7 7 7 7 6 6 8 11 9 9 8 10 10 9 11 11 11 15 16 16 15 14 12 14 17 15 11 9 6 6 6 2
10 10 10 12 12 10 9 10 11 10 10 8 7 8 8 7 10 12 11 8 9 9 8 8 9 12 14 15 15 16 17 16 16 17 20 25 25 25 17 6 4 4 4
10 11 12 11 12 10 10 11 10 10 11 9 9 8 8 9 12 11 9 7 10 8 7 7 9 9 14 19 14 16 18 16 15 18 16 16 16 14 14 12 8 10 5
11 10 10 12 14 12 11 11 10 11 11 11 10 7 7 7 8 13 12 8 8 9 9 10 9 16 18 20 23 16 17 18 18 14 12 11 10 8 6 8 10 10 8
11 10 9 11 10 11 12 12 11 10 11 10 9 8 6 6 8 11 15 16 16 10 11 10 12 24 28 27 21 23 24 20 10 10 9 9 8 8 5 4 6 3 2
11 11 11 11 9 10 11 12 9 8 9 10 9 8 8 8 7 15 16 16 18 13 10 17 26 28 30 23 22 20 15 8 8 9 11 9 7 4 4 4 3 4 5
12 12 11 10 12 10 8 8 8 7 7 9 10 9 10 9 8 8 8 10 13 14 17 13 19 25 27 21 14 10 5 6 8 9 9 8 3 2 3 1 2 1 1
11 11 11 9 11 11 9 9 9 10 9 10 10 10 12 11 9 19 20 11 12 16 21 13 12 11 10 10 9 7 6 5 7 9 8 9 6 5 4 3 3 2 2
11 9 9 9 9 9 9 10 14 19 19 20 24 20 11 22 25 26 27 28 28 28 14 13 13 11 11 10 10 9 7 8 7 7 9 9 8 6 6 3 4 5 6
11 11 9 10 9 9 9 11 14 11 20 22 23 24 25 24 28 28 28 29 28 24 12 12 12 11 11 11 11 11 11 9 9 9 9 10 9 7 6 5 6 6 6
10 13 9 9 9 9 10 11 11 12 14 11 14 21 23 27 28 28 28 27 14 11 11 12 12 11 11 12 11 11 11 11 11 10 10 10 8 8 7 7 7 8 7
10 9 9 9 9 11 10 11 11 12 12 13 12 14 15 24 27 28 26 11 11 11 10 11 12 12 12 12 12 11 13 12 13 12 11 11 9 9 9 8 8 10 8
9 12 11 9 9 9 9 10 11 12 12 12 12 13 12 14 12 12 11 11 11 12 12 13 12 13 13 12 12 12 12 13 12 12 12 11 10 9 10 10 9 9 9
7 8 11 9 9 9 10 10 11 11 12 13 13 14 27 17 14 14 13 12 13 13 13 13 13 13 12 12 13 12 13 13 12 11 13 12 11 11 10 10 10 9 8
8 8 8 9 9 10 10 10 11 12 13 13 14 14 29 14 14 14 14 13 13 14 13 14 14 13 13 12 12 13 14 14 12 12 13 14 15 12 10 10 9 8 9
8 10 10 9 10 13 11 11 11 12 13 14 15 14 13 13 14 15 15 14 13 14 13 14 16 15 14 13 13 13 14 14 12 11 12 13 15 16 12 12 10 9 10
9 10 10 10 10 10 11 12 12 15 15 14 15 15 15 15 16 17 16 15 14 14 14 14 15 20 17 17 15 14 15 14 13 13 17 15 15 15 16 10 10 13 11
10 10 10 11 11 11 13 13 13 14 15 15 15 15 16 16 17 17 16 15 15 15 16 16 15 19 22 25 24 25 24 26 21 21 15 18 19 21 17 15 11 10 14
10 11 11 10 11 11 12 13 14 15 15 15 16 17 17 18 18 17 17 17 16 16 18 15 18 24 26 22 25 28 28 29 25 26 19 17 17 16 14 17 16 12 14
Wind_Direction
76 72 67 53 39 46 47 30 13 349 353 337 327 314 303 298 294 289 275 265 259 263 263 264 264 260 260 256 244 241 244 244 257 267 262 260 259 254 233 235 242 245 247
49 48 55 43 33 36 26 10 0 351 343 340 336 329 327 323 321 314 307 305 300 294 280 269 263 259 257 256 260 261 253 246 248 266 264 263 253 246 248 235 234 237 246
35 34 50 33 19 17 11 356 349 342 338 340 338 335 330 331 332 330 341 332 321 317 317 320 318 328 292 265 250 254 260 261 258 260 269 263 263 254 242 237 238 242 244
27 47 48 20 359 352 341 337 331 327 331 336 338 330 332 339 335 12 343 331 319 313 312 308 306 308 306 320 319 306 271 259 262 258 262 267 260 263 237 232 248 234 252
3 39 32 10 355 349 336 332 320 319 320 333 331 326 328 339 18 350 337 326 323 320 318 318 312 316 300 294 295 304 299 304 289 268 266 272 269 244 206 224 241 257 247
6 13 10 2 355 352 339 329 324 319 324 326 324 316 324 323 17 349 333 316 309 311 314 314 318 314 310 300 296 296 284 289 292 292 299 282 275 246 210 228 241 161 268
11 12 5 357 351 351 338 319 323 312 313 305 303 301 304 305 359 331 316 308 303 309 309 314 318 314 320 323 325 315 308 301 282 285 280 276 289 291 266 242 226 213 242
20 10 360 348 339 333 341 334 326 321 313 306 299 311 306 308 325 312 310 302 299 297 304 306 304 312 317 322 317 315 313 306 296 291 284 284 281 289 286 291 244 244 358
21 360 353 347 329 347 337 336 333 321 313 314 314 309 311 312 321 312 303 310 301 303 293 294 303 306 304 309 311 311 306 301 305 286 277 281 285 281 271 277 242 199 244
6 352 346 347 325 332 339 335 330 317 309 311 303 306 304 297 301 309 326 315 305 301 295 293 286 289 307 314 309 305 301 302 312 308 301 292 286 280 257 246 252 229 199
347 349 350 339 332 329 341 331 327 320 315 305 299 302 295 287 301 324 326 325 313 313 312 316 309 301 305 304 300 294 289 300 302 299 294 292 293 291 282 266 246 220 214
342 345 348 345 337 330 336 329 329 317 308 305 310 323 319 321 324 325 325 322 315 315 306 305 304 304 303 298 296 288 296 301 295 292 294 297 297 298 300 321 331 317 335
338 345 349 343 331 329 333 334 319 326 318 323 321 325 322 324 320 330 324 319 318 318 305 298 301 303 300 296 286 281 288 292 288 298 303 296 296 308 303 305 356 31 41
343 340 337 336 331 331 326 319 316 321 322 321 315 319 314 309 320 318 320 311 321 313 308 301 297 295 289 281 282 277 255 275 280 287 291 288 279 273 278 270 289 206 108
339 334 336 334 329 325 319 316 308 303 308 307 301 304 306 301 304 307 307 314 312 303 308 302 299 296 294 289 281 268 267 272 279 288 285 287 277 267 256 199 238 229 219
331 335 331 326 322 316 314 307 296 302 304 301 301 296 294 294 304 306 306 305 303 305 299 298 295 292 286 291 289 289 281 279 277 280 284 285 276 264 257 209 212 222 222
331 326 322 312 308 318 314 308 310 315 308 302 300 299 299 301 304 303 303 302 300 305 287 284 282 283 289 293 298 295 290 282 285 279 276 280 277 263 244 228 222 224 229
319 313 306 309 316 310 304 308 307 305 308 305 298 300 300 302 304 303 304 305 296 278 270 276 282 285 285 289 290 291 292 290 279 277 277 279 268 261 254 234 221 224 222
311 303 306 307 303 301 299 295 296 297 297 298 299 297 304 303 306 305 302 288 282 278 276 275 277 280 281 282 282 282 282 284 287 281 273 268 262 258 248 241 232 218 208
297 295 297 295 295 296 293 297 299 296 297 298 300 300 303 302 295 292 289 285 282 280 277 273 274 275 276 276 278 280 281 282 283 278 273 267 259 238 242 240 228 218 202
300 297 294 287 290 295 291 290 290 290 290 290 290 292 295 298 298 291 289 285 284 280 277 276 274 272 271 272 274 275 273 274 278 273 290 285 261 248 233 230 233 217 199
294 296 296 291 289 288 286 288 287 284 284 286 288 287 291 289 283 281 278 275 272 271 275 277 274 271 269 269 269 269 270 271 274 270 274 274 283 250 235 222 223 198 188
295 292 288 286 285 286 285 286 287 286 288 289 290 290 287 282 280 279 278 277 274 272 269 269 274 275 271 268 265 264 266 267 269 274 279 286 278 290 241 217 207 195 184
291 291 290 290 290 290 289 290 291 289 288 287 286 285 285 284 283 281 280 279 277 274 271 269 268 269 274 272 268 265 264 265 266 267 267 274 277 270 285 216 197 197 187
292 290 291 292 293 293 295 294 293 292 291 290 289 287 286 286 285 284 282 280 277 275 274 272 269 269 268 269 267 268 267 267 265 267 269 272 273 275 265 259 191 192 180
286 286 287 287 287 289 289 291 292 292 291 290 289 287 288 287 285 284 282 279 276 274 272 270 267 267 269 270 268 267 266 265 262 260 257 253 256 257 255 248 194 181 179